TimeMST,TemperatureF,Dew PointF,Humidity,Sea Level PressureIn,VisibilityMPH,Wind Direction,Wind SpeedMPH,Gust SpeedMPH,PrecipitationIn,Events,Conditions,WindDirDegrees,DateUTC
12:58 AM,34.9,10.0,36,30.01,10.0,West,2.3,-,N/A,,Clear,260,2013-02-23 07:58:00
1:58 AM,33.4,10.2,38,30.01,10.0,North,11.5,-,N/A,,Clear,10,2013-02-23 08:58:00
2:58 AM,28.0,9.0,45,30.03,10.0,NE,6.9,-,N/A,,Clear,40,2013-02-23 09:58:00
3:58 AM,25.9,8.8,48,30.02,10.0,NE,9.2,-,N/A,,Clear,40,2013-02-23 10:58:00
4:58 AM,24.8,9.1,51,30.03,10.0,NE,10.4,-,N/A,,Clear,40,2013-02-23 11:58:00
5:58 AM,25.2,8.8,50,30.03,10.0,NE,11.5,-,N/A,,Clear,40,2013-02-23 12:58:00
6:58 AM,24.8,8.2,49,30.04,10.0,NE,11.5,-,N/A,,Clear,40,2013-02-23 13:58:00
7:58 AM,36.9,8.6,31,30.02,10.0,NE,10.4,-,N/A,,Clear,40,2013-02-23 14:58:00
8:58 AM,43.3,6.6,22,30.01,10.0,NNE,10.4,-,N/A,,Clear,20,2013-02-23 15:58:00
9:58 AM,45.7,5.7,19,29.99,10.0,Variable,6.9,-,N/A,,Clear,0,2013-02-23 16:58:00
10:58 AM,47.5,4.8,17,29.98,10.0,NNW,8.1,-,N/A,,Clear,330,2013-02-23 17:58:00
11:58 AM,50.5,5.0,16,29.94,10.0,Variable,1.2,-,N/A,,Clear,0,2013-02-23 18:58:00
12:58 PM,53.1,3.6,13,29.89,10.0,West,2.3,-,N/A,,Clear,260,2013-02-23 19:58:00
1:58 PM,54.5,3.9,13,29.85,10.0,SSE,8.1,-,N/A,,Clear,160,2013-02-23 20:58:00
2:58 PM,55.9,7.5,14,29.82,10.0,South,10.4,18.4,N/A,,Clear,170,2013-02-23 21:58:00
3:58 PM,56.7,9.7,15,29.80,10.0,South,9.2,-,N/A,,Clear,170,2013-02-23 22:58:00
4:58 PM,56.1,10.8,17,29.77,10.0,SSE,16.1,-,N/A,,Clear,150,2013-02-23 23:58:00
5:58 PM,54.1,12.9,19,29.75,10.0,SE,19.6,-,N/A,,Clear,140,2013-02-24 00:58:00
6:58 PM,49.6,13.5,24,29.76,10.0,SSE,15.0,23.0,N/A,,Clear,160,2013-02-24 01:58:00
7:25 PM,50.0,14.0,24,29.81,10.0,South,12.7,18.4,N/A,,Clear,170,2013-02-24 02:25:00
7:58 PM,49.3,15.1,26,29.73,10.0,SSE,17.3,-,N/A,,Clear,150,2013-02-24 02:58:00
8:04 PM,51.8,15.8,24,29.80,10.0,South,12.7,27.6,N/A,,Clear,180,2013-02-24 03:04:00
8:58 PM,48.4,15.8,27,29.73,10.0,South,6.9,-,N/A,,Clear,180,2013-02-24 03:58:00
9:58 PM,48.0,15.8,28,29.70,10.0,SSE,18.4,-,N/A,,Clear,150,2013-02-24 04:58:00
10:58 PM,48.7,17.2,29,29.68,10.0,SE,20.7,-,N/A,,Clear,140,2013-02-24 05:58:00
11:58 PM,46.0,17.2,32,29.68,10.0,SSE,11.5,-,N/A,,Clear,150,2013-02-24 06:58:00